Home > Weather > Askim > Past weeks

Flag for Norway Past Weather in Askim, Norway — Yesterday and Last 2 Weeks

Now
64 °F

Broken clouds.


Feels Like: 64 °F
Forecast: 56 / 65 °F
Wind: 14 mph from Southwest

Location: Rygge

Current Time: Jul 26, 2016 at 10:35:21 AM

Latest Report: Jul 26, 2016 at 9:50 AM


Visibility: N/A

Pressure: 29.92 "Hg

Humidity: 78%

Dew Point: 57 °F

Location of AskimLocation

Past Weather in Askim — Graph

°F

Askim Temperature Yesterday

Maximum temperature yesterday: 79 °F (at 12:50 PM)
Minimum temperature yesterday: 61 °F (at 3:20 AM)
Average temperature yesterday: 67 °F

High & Low Weather Summary for the Past Weeks

 TemperatureHumidityPressure
High79 °F (Jul 21, 2:20 PM)100% (Jul 12, 10:50 PM)30.15 "Hg (Jul 12, 10:50 PM)
Low52 °F (Jul 17, 3:50 AM)46% (Jul 16, 7:20 PM)29.45 "Hg (Jul 11, 1:20 PM)
Average64 °F78%29.91 "Hg
* Reported Jul 11 8:20 AM — Jul 26 8:50 AM, Askim, Weather by CustomWeather, © 2016

Note: Actual official high and low records may vary slightly from our data, if they occured in-between our weather recording intervals... More about our weather records

Advertising

Askim Weather History for the Previous 24 Hours

Scroll right to see more
 ConditionsComfort  
Time TempWeatherWind HumidityBarometerVisibility
8:50 AM
Tue, Jul 26
64 °FPassing clouds.12 mph83%29.92 "HgN/A
8:20 AM64 °FPassing clouds.10 mph83%29.92 "HgN/A
7:50 AM64 °FSunny.9 mph83%29.89 "Hg10 mi
7:20 AM63 °FScattered clouds.10 mph94%29.89 "HgN/A
6:50 AM63 °FScattered showers. Partly sunny.8 mph100%29.89 "HgN/A
6:20 AM63 °FDrizzle. Partly sunny.7 mph100%29.89 "Hg3 mi
5:20 AM63 °FPartly cloudy.6 mph100%29.89 "Hg4 mi
4:50 AM63 °FPassing clouds.5 mph94%29.89 "Hg4 mi
4:20 AM63 °FHeavy rain. Overcast.5 mph94%29.92 "Hg3 mi
3:50 AM63 °FPassing clouds.6 mph94%29.92 "HgN/A
2:50 AM63 °FMostly cloudy.6 mph94%29.92 "HgN/A
2:20 AM61 °FPartly cloudy.3 mph100%29.92 "Hg4 mi
1:50 AM59 °FPassing clouds.3 mph100%29.95 "Hg4 mi
1:20 AM61 °FPassing clouds.1 mph94%29.95 "HgN/A
12:50 AM61 °FClear.3 mph94%29.95 "Hg10 mi
12:20 AM61 °FPassing clouds.5 mph94%29.95 "HgN/A
11:50 PM
Mon, Jul 25
61 °FPassing clouds.5 mph94%29.98 "HgN/A
11:20 PM63 °FPassing clouds.3 mph94%29.98 "HgN/A
10:50 PM63 °FPartly sunny.3 mph94%29.98 "HgN/A
10:20 PM63 °FBroken clouds.3 mph94%29.98 "HgN/A
9:50 PM64 °FLight rain. Broken clouds.5 mph94%29.98 "HgN/A
9:20 PM64 °FScattered clouds.5 mph88%29.98 "HgN/A
8:50 PM64 °FPartly sunny.6 mph94%29.98 "HgN/A
8:20 PM64 °FDrizzle. Broken clouds.5 mph94%29.98 "HgN/A
7:50 PM64 °FLight rain. Partly sunny.7 mph94%29.98 "Hg6 mi
7:20 PM64 °FLight rain. Scattered clouds.5 mph94%30.01 "HgN/A
6:50 PM64 °FPassing clouds.5 mph88%30.01 "HgN/A
6:20 PM66 °FScattered clouds.6 mph83%30.01 "HgN/A
5:50 PM66 °FBroken clouds.8 mph78%30.01 "HgN/A
5:20 PM68 °FScattered clouds.9 mph73%30.01 "HgN/A
4:50 PM70 °FScattered clouds.9 mph78%30.01 "HgN/A
4:20 PM70 °FScattered clouds.12 mph78%30.01 "HgN/A
3:50 PM70 °FScattered clouds.12 mph78%30.01 "HgN/A
3:20 PM70 °FScattered clouds.17 mph78%30.01 "HgN/A
2:50 PM73 °FSunny.16 mph69%30.01 "Hg10 mi
2:20 PM75 °FPassing clouds.12 mph57%30.01 "HgN/A
1:50 PM75 °FSunny.16 mph50%30.01 "Hg10 mi
1:20 PM77 °FSunny.15 mph51%30.01 "Hg10 mi
12:50 PM79 °FSunny.8 mph51%30.01 "Hg10 mi
12:20 PM75 °FScattered clouds.12 mph54%30.01 "HgN/A
11:50 AM77 °FPassing clouds.8 mph51%30.01 "HgN/A
11:20 AM75 °FPassing clouds.7 mph57%30.04 "HgN/A
10:50 AM73 °FPassing clouds.8 mph65%30.04 "HgN/A
10:20 AM75 °FPassing clouds.9 mph57%30.04 "HgN/A
Weather by CustomWeather, © 2016

See weather overviewHow to use our weather pages